,,,PA_Meas_PMT16A,,PR_Meas_QMR101_102,,RH_Meas_QMH101,,SR_Meas_QMS101,,TA_Meas_QMH101,,GenWind,,GenWind,
date,time,status,PA,status,PR,status,RH,status,SR,status,TA,status,DirAvg,status,SpdAvg,
2010-10-19, 00:00:04,VALID,1010.25,VALID,0,VALID,103.573,VALID,0,VALID,22.603,VALID,79,VALID,0,
2010-10-19, 00:01:04,VALID,1010.26,VALID,0,VALID,103.573,VALID,0,VALID,22.5835,VALID,79,VALID,0,
2010-10-19, 00:02:04,VALID,1010.23,VALID,0,VALID,103.565,VALID,0,VALID,22.5835,VALID,79,VALID,0,
2010-10-19, 00:03:04,VALID,1010.19,VALID,0,VALID,103.55,VALID,0,VALID,22.5835,VALID,79,VALID,0,
2010-10-19, 00:04:04,VALID,1010.17,VALID,0,VALID,103.55,VALID,0,VALID,22.603,VALID,79,VALID,0,
2010-10-19, 00:05:04,VALID,1010.17,VALID,0,VALID,103.52,VALID,0,VALID,22.603,VALID,79,VALID,0,
2010-10-19, 00:06:04,VALID,1010.13,VALID,0,VALID,103.52,VALID,0,VALID,22.5835,VALID,79,VALID,0,
2010-10-19, 00:07:04,VALID,1010.1,VALID,0,VALID,103.542,VALID,0.105969,VALID,22.5818,VALID,79,VALID,0,
2010-10-19, 00:08:04,VALID,1010.09,VALID,0,VALID,103.558,VALID,0,VALID,22.5818,VALID,79,VALID,0,
2010-10-19, 00:09:04,VALID,1010.06,VALID,0,VALID,103.542,VALID,0.105969,VALID,22.5623,VALID,79,VALID,0,
2010-10-19, 00:10:04,VALID,1010.05,VALID,0,VALID,103.527,VALID,0.105969,VALID,22.5818,VALID,79,VALID,0.504687,
2010-10-19, 00:11:04,VALID,1010.01,VALID,0,VALID,103.52,VALID,0.105969,VALID,22.6013,VALID,79,VALID,0.408203,
2010-10-19, 00:12:04,VALID,1010.02,VALID,0,VALID,103.489,VALID,0.105969,VALID,22.6225,VALID,79,VALID,0.388672,
2010-10-19, 00:13:04,VALID,1010,VALID,0,VALID,103.474,VALID,0.105969,VALID,22.6208,VALID,79,VALID,0.321875,
2010-10-19, 00:14:04,VALID,1009.97,VALID,0,VALID,103.428,VALID,0.105969,VALID,22.6597,VALID,86,VALID,0.6375,
2010-10-19, 00:15:04,VALID,1009.97,VALID,0,VALID,103.413,VALID,0.105969,VALID,22.6792,VALID,85,VALID,0.819531,
2010-10-19, 00:16:04,VALID,1009.92,VALID,0,VALID,103.413,VALID,0.105969,VALID,22.6987,VALID,82,VALID,1.09844,
2010-10-19, 00:17:04,VALID,1009.89,VALID,0,VALID,103.428,VALID,0.105969,VALID,22.6987,VALID,80,VALID,0.502344,
2010-10-19, 00:18:04,VALID,1009.91,VALID,0,VALID,103.42,VALID,0.105969,VALID,22.6987,VALID,82,VALID,0.897656,
2010-10-19, 00:19:04,VALID,1009.84,VALID,0,VALID,103.42,VALID,0.105969,VALID,22.7182,VALID,80,VALID,0.448047,
2010-10-19, 00:20:04,VALID,1009.83,VALID,0,VALID,103.443,VALID,0.105969,VALID,22.7182,VALID,80,VALID,0.438281,
2010-10-19, 00:21:04,VALID,1009.81,VALID,0,VALID,103.451,VALID,0.105969,VALID,22.7182,VALID,79,VALID,0.716406,
2010-10-19, 00:22:04,VALID,1009.82,VALID,0,VALID,103.42,VALID,0.105969,VALID,22.7588,VALID,79,VALID,0.140625,
2010-10-19, 00:23:04,VALID,1009.83,VALID,0,VALID,103.42,VALID,0.105969,VALID,22.7376,VALID,79,VALID,0.337891,
2010-10-19, 00:24:04,VALID,1009.81,VALID,0,VALID,103.42,VALID,0,VALID,22.7394,VALID,80,VALID,0.241406,
2010-10-19, 00:25:04,VALID,1009.82,VALID,0,VALID,103.436,VALID,0.105969,VALID,22.7376,VALID,82,VALID,0.457812,
2010-10-19, 00:26:04,VALID,1009.82,VALID,0,VALID,103.436,VALID,0.105969,VALID,22.7571,VALID,82,VALID,0.132031,
2010-10-19, 00:27:04,VALID,1009.83,VALID,0,VALID,103.451,VALID,0.105969,VALID,22.7376,VALID,82,VALID,0.084375,
2010-10-19, 00:28:04,VALID,1009.83,VALID,0,VALID,103.466,VALID,0.105969,VALID,22.7376,VALID,82,VALID,0,
2010-10-19, 00:29:04,VALID,1009.81,VALID,0,VALID,103.451,VALID,0,VALID,22.7376,VALID,82,VALID,0,
2010-10-19, 00:30:04,VALID,1009.82,VALID,0,VALID,103.459,VALID,0,VALID,22.7588,VALID,82,VALID,0,
2010-10-19, 00:31:04,VALID,1009.82,VALID,0,VALID,103.459,VALID,0.105969,VALID,22.7376,VALID,82,VALID,0,
2010-10-19, 00:32:04,VALID,1009.81,VALID,0,VALID,103.504,VALID,0.105969,VALID,22.7182,VALID,82,VALID,0,
2010-10-19, 00:33:04,VALID,1009.81,VALID,0,VALID,103.542,VALID,0,VALID,22.6987,VALID,82,VALID,0,
2010-10-19, 00:34:04,VALID,1009.8,VALID,0,VALID,103.527,VALID,0.105969,VALID,22.6792,VALID,82,VALID,0,
2010-10-19, 00:35:04,VALID,1009.85,VALID,0,VALID,103.55,VALID,0.105969,VALID,22.6597,VALID,82,VALID,0,
2010-10-19, 00:36:04,VALID,1009.87,VALID,0,VALID,103.542,VALID,0,VALID,22.6402,VALID,82,VALID,0,
2010-10-19, 00:37:04,VALID,1009.88,VALID,0,VALID,103.52,VALID,0,VALID,22.642,VALID,82,VALID,0,
2010-10-19, 00:38:04,VALID,1009.92,VALID,0,VALID,103.52,VALID,0,VALID,22.6437,VALID,82,VALID,0,
2010-10-19, 00:39:04,VALID,1009.94,VALID,0,VALID,103.504,VALID,0,VALID,22.642,VALID,82,VALID,0,
2010-10-19, 00:40:04,VALID,1009.96,VALID,0,VALID,103.489,VALID,0,VALID,22.642,VALID,82,VALID,0,
2010-10-19, 00:41:04,VALID,1009.95,VALID,0,VALID,103.459,VALID,0,VALID,22.6826,VALID,82,VALID,0,
2010-10-19, 00:42:04,VALID,1009.93,VALID,0,VALID,103.489,VALID,0,VALID,22.6809,VALID,82,VALID,0,
2010-10-19, 00:43:04,VALID,1009.91,VALID,0,VALID,103.451,VALID,0,VALID,22.7004,VALID,85,VALID,0,
2010-10-19, 00:44:04,VALID,1009.89,VALID,0,VALID,103.451,VALID,0,VALID,22.7004,VALID,85,VALID,0,
2010-10-19, 00:45:04,VALID,1009.86,VALID,0,VALID,103.466,VALID,0,VALID,22.7004,VALID,80,VALID,0,
2010-10-19, 00:46:04,VALID,1009.83,VALID,0,VALID,103.459,VALID,0,VALID,22.7199,VALID,80,VALID,0,
2010-10-19, 00:47:04,VALID,1009.81,VALID,0,VALID,103.436,VALID,0,VALID,22.7394,VALID,80,VALID,0.737109,
2010-10-19, 00:48:04,VALID,1009.8,VALID,0,VALID,103.436,VALID,0,VALID,22.7394,VALID,80,VALID,0.440625,
2010-10-19, 00:49:04,VALID,1009.78,VALID,0,VALID,103.436,VALID,0,VALID,22.7588,VALID,58,VALID,1.17148,
2010-10-19, 00:50:04,VALID,1009.78,VALID,0,VALID,103.42,VALID,0,VALID,22.7978,VALID,59,VALID,0.705469,
2010-10-19, 00:51:04,VALID,1009.81,VALID,0,VALID,103.428,VALID,0,VALID,22.7978,VALID,78,VALID,0.40625,
2010-10-19, 00:52:04,VALID,1009.82,VALID,0,VALID,103.451,VALID,0,VALID,22.8173,VALID,53,VALID,0.617188,
2010-10-19, 00:53:04,VALID,1009.83,VALID,0,VALID,103.443,VALID,0,VALID,22.8368,VALID,52,VALID,0.514844,
2010-10-19, 00:54:04,VALID,1009.88,VALID,0,VALID,103.436,VALID,0,VALID,22.8368,VALID,54,VALID,0.24375,
2010-10-19, 00:55:04,VALID,1009.89,VALID,0,VALID,103.474,VALID,0,VALID,22.8173,VALID,73,VALID,0.394922,
2010-10-19, 00:56:04,VALID,1009.91,VALID,0,VALID,103.481,VALID,0,VALID,22.8173,VALID,70,VALID,0.354688,
2010-10-19, 00:57:04,VALID,1009.91,VALID,0,VALID,103.481,VALID,0,VALID,22.8173,VALID,70,VALID,0.362891,
2010-10-19, 00:58:04,VALID,1009.94,VALID,0,VALID,103.489,VALID,0,VALID,22.8173,VALID,70,VALID,0.243359,
2010-10-19, 00:59:04,VALID,1009.96,VALID,0,VALID,103.459,VALID,0,VALID,22.8385,VALID,70,VALID,0.310937,
2010-10-19, 01:00:04,VALID,1009.95,VALID,0,VALID,103.489,VALID,0,VALID,22.8368,VALID,70,VALID,0.00585938,
2010-10-19, 01:01:04,VALID,1009.96,VALID,0,VALID,103.474,VALID,0,VALID,22.8562,VALID,70,VALID,0.230078,
2010-10-19, 01:02:04,VALID,1009.96,VALID,0,VALID,103.459,VALID,0,VALID,22.8562,VALID,70,VALID,0,
2010-10-19, 01:03:04,VALID,1009.98,VALID,0,VALID,103.466,VALID,0,VALID,22.8562,VALID,70,VALID,0.0472656,
2010-10-19, 01:04:04,VALID,1009.99,VALID,0,VALID,103.466,VALID,0,VALID,22.8562,VALID,70,VALID,0.563281,
2010-10-19, 01:05:04,VALID,1009.98,VALID,0,VALID,103.466,VALID,0,VALID,22.8562,VALID,70,VALID,0.224609,
2010-10-19, 01:06:04,VALID,1009.96,VALID,0,VALID,103.474,VALID,0,VALID,22.8757,VALID,70,VALID,0.548437,
2010-10-19, 01:07:04,VALID,1009.96,VALID,0,VALID,103.466,VALID,0,VALID,22.8757,VALID,69,VALID,0.525391,
2010-10-19, 01:08:04,VALID,1009.96,VALID,0,VALID,103.466,VALID,0,VALID,22.8952,VALID,75,VALID,0.342969,
2010-10-19, 01:09:04,VALID,1009.97,VALID,0,VALID,103.466,VALID,0,VALID,22.8952,VALID,72,VALID,0.845312,
2010-10-19, 01:10:04,VALID,1009.99,VALID,0,VALID,103.428,VALID,0,VALID,22.9342,VALID,74,VALID,0.698828,
2010-10-19, 01:11:04,VALID,1010.01,VALID,0,VALID,103.459,VALID,0,VALID,22.9342,VALID,74,VALID,0.181641,
2010-10-19, 01:12:04,VALID,1010.05,VALID,0,VALID,103.443,VALID,0,VALID,22.9536,VALID,74,VALID,0.430469,
2010-10-19, 01:13:04,VALID,1010.04,VALID,0,VALID,103.489,VALID,0,VALID,22.9731,VALID,74,VALID,0.0921875,
2010-10-19, 01:14:04,VALID,1010.04,VALID,0,VALID,103.489,VALID,0,VALID,22.9731,VALID,74,VALID,0,
2010-10-19, 01:15:04,VALID,1009.98,VALID,0,VALID,103.497,VALID,0,VALID,22.9731,VALID,74,VALID,0,
2010-10-19, 01:16:04,VALID,1009.96,VALID,0,VALID,103.481,VALID,0,VALID,22.9926,VALID,74,VALID,0,
2010-10-19, 01:17:04,VALID,1009.93,VALID,0,VALID,103.52,VALID,0,VALID,22.9731,VALID,74,VALID,0,
2010-10-19, 01:18:04,VALID,1009.92,VALID,0,VALID,103.52,VALID,0,VALID,22.9536,VALID,74,VALID,0.299609,
2010-10-19, 01:19:04,VALID,1009.92,VALID,0,VALID,103.535,VALID,0,VALID,22.9731,VALID,74,VALID,0.234375,
2010-10-19, 01:20:04,VALID,1009.92,VALID,0,VALID,103.527,VALID,0,VALID,22.9536,VALID,60,VALID,0.147656,
2010-10-19, 01:21:04,VALID,1009.9,VALID,0,VALID,103.542,VALID,0,VALID,22.9731,VALID,60,VALID,0.000390625,
2010-10-19, 01:22:04,VALID,1009.91,VALID,0,VALID,103.535,VALID,0,VALID,22.9749,VALID,60,VALID,0.209766,
2010-10-19, 01:23:04,VALID,1009.9,VALID,0,VALID,103.542,VALID,0,VALID,22.9536,VALID,60,VALID,0,
2010-10-19, 01:24:04,VALID,1009.93,VALID,0,VALID,103.542,VALID,0,VALID,22.9536,VALID,60,VALID,0,
2010-10-19, 01:25:04,VALID,1009.89,VALID,0,VALID,103.565,VALID,0,VALID,22.9731,VALID,60,VALID,0.0214844,
2010-10-19, 01:26:04,VALID,1009.92,VALID,0,VALID,103.573,VALID,0,VALID,22.9749,VALID,60,VALID,0,
2010-10-19, 01:27:04,VALID,1009.92,VALID,0,VALID,103.573,VALID,0,VALID,22.9536,VALID,60,VALID,0,
2010-10-19, 01:28:04,VALID,1009.91,VALID,0,VALID,103.573,VALID,0,VALID,22.9731,VALID,60,VALID,0,
2010-10-19, 01:29:04,VALID,1009.93,VALID,0,VALID,103.558,VALID,0,VALID,22.9731,VALID,60,VALID,0,
2010-10-19, 01:30:04,VALID,1009.92,VALID,0,VALID,103.55,VALID,0,VALID,22.9536,VALID,60,VALID,0,
2010-10-19, 01:31:04,VALID,1009.92,VALID,0,VALID,103.558,VALID,0,VALID,22.9731,VALID,60,VALID,0,
2010-10-19, 01:32:04,VALID,1009.91,VALID,0,VALID,103.558,VALID,0,VALID,22.9926,VALID,60,VALID,0.162891,
2010-10-19, 01:33:04,VALID,1009.86,VALID,0,VALID,103.558,VALID,0,VALID,22.9731,VALID,60,VALID,0.167969,
2010-10-19, 01:34:04,VALID,1009.82,VALID,0,VALID,103.573,VALID,0,VALID,22.9731,VALID,60,VALID,0,
2010-10-19, 01:35:04,VALID,1009.81,VALID,0,VALID,103.573,VALID,0,VALID,22.9731,VALID,60,VALID,0,
2010-10-19, 01:36:04,VALID,1009.76,VALID,0,VALID,103.588,VALID,0,VALID,22.9731,VALID,60,VALID,0,
2010-10-19, 01:37:04,VALID,1009.75,VALID,0,VALID,103.596,VALID,0,VALID,22.9926,VALID,60,VALID,0,
2010-10-19, 01:38:04,VALID,1009.73,VALID,0,VALID,103.603,VALID,0,VALID,22.9731,VALID,60,VALID,0,
2010-10-19, 01:39:04,VALID,1009.73,VALID,0,VALID,103.596,VALID,0,VALID,22.9926,VALID,60,VALID,0,
2010-10-19, 01:40:04,VALID,1009.71,VALID,0,VALID,103.588,VALID,0,VALID,22.9926,VALID,60,VALID,0,
2010-10-19, 01:41:04,VALID,1009.66,VALID,0,VALID,103.596,VALID,0,VALID,22.9731,VALID,60,VALID,0,
2010-10-19, 01:42:04,VALID,1009.68,VALID,0,VALID,103.626,VALID,0,VALID,22.9731,VALID,60,VALID,0,
2010-10-19, 01:43:04,VALID,1009.62,VALID,0,VALID,103.642,VALID,0,VALID,22.9731,VALID,60,VALID,0.685156,
2010-10-19, 01:44:04,VALID,1009.64,VALID,0,VALID,103.642,VALID,0,VALID,22.9324,VALID,69,VALID,0.606641,
2010-10-19, 01:45:04,VALID,1009.6,VALID,0,VALID,103.657,VALID,0,VALID,22.9536,VALID,74,VALID,0.246094,
2010-10-19, 01:46:04,VALID,1009.62,VALID,0,VALID,103.649,VALID,0,VALID,22.9536,VALID,74,VALID,0,
2010-10-19, 01:47:04,VALID,1009.64,VALID,0,VALID,103.642,VALID,0,VALID,22.9342,VALID,74,VALID,0,
2010-10-19, 01:48:04,VALID,1009.64,VALID,0,VALID,103.664,VALID,0,VALID,22.9536,VALID,74,VALID,0,
2010-10-19, 01:49:04,VALID,1009.63,VALID,0,VALID,103.649,VALID,0,VALID,22.9342,VALID,74,VALID,0.00195313,
2010-10-19, 01:50:04,VALID,1009.6,VALID,0,VALID,103.664,VALID,0,VALID,22.9342,VALID,74,VALID,0.280469,
2010-10-19, 01:51:04,VALID,1009.61,VALID,0,VALID,103.672,VALID,0,VALID,22.8935,VALID,74,VALID,0.381641,
2010-10-19, 01:52:04,VALID,1009.6,VALID,0,VALID,103.687,VALID,0.105969,VALID,22.9129,VALID,74,VALID,0.208984,
2010-10-19, 01:53:04,VALID,1009.54,VALID,0,VALID,103.672,VALID,0.105969,VALID,22.9129,VALID,74,VALID,0.152344,
2010-10-19, 01:54:04,VALID,1009.58,VALID,0,VALID,103.703,VALID,0.105969,VALID,22.8935,VALID,60,VALID,0.138281,
2010-10-19, 01:55:04,VALID,1009.53,VALID,0,VALID,103.695,VALID,0,VALID,22.874,VALID,60,VALID,0,
2010-10-19, 01:56:04,VALID,1009.54,VALID,0,VALID,103.718,VALID,0.105969,VALID,22.874,VALID,60,VALID,0,
2010-10-19, 01:57:04,VALID,1009.54,VALID,0,VALID,103.726,VALID,0.105969,VALID,22.8545,VALID,60,VALID,0,
2010-10-19, 01:58:04,VALID,1009.55,VALID,0,VALID,103.726,VALID,0.105969,VALID,22.8545,VALID,60,VALID,0,
2010-10-19, 01:59:04,VALID,1009.55,VALID,0,VALID,103.726,VALID,0,VALID,22.835,VALID,60,VALID,0,
2010-10-19, 02:00:04,VALID,1009.54,VALID,0,VALID,103.718,VALID,0.105969,VALID,22.835,VALID,60,VALID,0,
2010-10-19, 02:01:04,VALID,1009.55,VALID,0,VALID,103.703,VALID,0.105969,VALID,22.8333,VALID,60,VALID,0,
2010-10-19, 02:02:04,VALID,1009.52,VALID,0,VALID,103.703,VALID,0.105969,VALID,22.835,VALID,60,VALID,0,
2010-10-19, 02:03:04,VALID,1009.52,VALID,0,VALID,103.695,VALID,0.105969,VALID,22.8545,VALID,60,VALID,0,
2010-10-19, 02:04:04,VALID,1009.52,VALID,0,VALID,103.695,VALID,0.105969,VALID,22.8545,VALID,60,VALID,0,
2010-10-19, 02:05:04,VALID,1009.51,VALID,0,VALID,103.687,VALID,0.105969,VALID,22.8545,VALID,60,VALID,0,
2010-10-19, 02:06:04,VALID,1009.49,VALID,0,VALID,103.672,VALID,0.105969,VALID,22.8545,VALID,60,VALID,0,
2010-10-19, 02:07:04,VALID,1009.53,VALID,0,VALID,103.68,VALID,0,VALID,22.8368,VALID,60,VALID,0,
2010-10-19, 02:08:04,VALID,1009.51,VALID,0,VALID,103.672,VALID,0,VALID,22.835,VALID,60,VALID,0.0964844,
2010-10-19, 02:09:04,VALID,1009.5,VALID,0,VALID,103.657,VALID,0,VALID,22.8757,VALID,60,VALID,0,
2010-10-19, 02:10:04,VALID,1009.46,VALID,0,VALID,103.664,VALID,0,VALID,22.8562,VALID,60,VALID,0.2,
2010-10-19, 02:11:04,VALID,1009.47,VALID,0,VALID,103.672,VALID,0,VALID,22.8562,VALID,60,VALID,0.125,
2010-10-19, 02:12:04,VALID,1009.45,VALID,0,VALID,103.672,VALID,0,VALID,22.8562,VALID,60,VALID,0.0300781,
2010-10-19, 02:13:04,VALID,1009.44,VALID,0,VALID,103.657,VALID,0,VALID,22.8368,VALID,60,VALID,0.0976563,
2010-10-19, 02:14:04,VALID,1009.43,VALID,0,VALID,103.649,VALID,0,VALID,22.8368,VALID,60,VALID,0,
2010-10-19, 02:15:04,VALID,1009.42,VALID,0,VALID,103.657,VALID,0,VALID,22.8562,VALID,60,VALID,0.223828,
2010-10-19, 02:16:04,VALID,1009.42,VALID,0,VALID,103.664,VALID,0,VALID,22.8562,VALID,60,VALID,0,
2010-10-19, 02:17:04,VALID,1009.4,VALID,0,VALID,103.664,VALID,0,VALID,22.8368,VALID,60,VALID,0,
2010-10-19, 02:18:04,VALID,1009.37,VALID,0,VALID,103.657,VALID,0,VALID,22.8368,VALID,60,VALID,0,
2010-10-19, 02:19:04,VALID,1009.34,VALID,0,VALID,103.642,VALID,0,VALID,22.8562,VALID,60,VALID,0,
2010-10-19, 02:20:04,VALID,1009.35,VALID,0,VALID,103.657,VALID,0,VALID,22.8368,VALID,60,VALID,0,
2010-10-19, 02:21:04,VALID,1009.31,VALID,0,VALID,103.657,VALID,0,VALID,22.8368,VALID,60,VALID,0,
2010-10-19, 02:22:04,VALID,1009.31,VALID,0,VALID,103.672,VALID,0,VALID,22.8173,VALID,60,VALID,0.0601562,
2010-10-19, 02:23:04,VALID,1009.3,VALID,0,VALID,103.664,VALID,0,VALID,22.8385,VALID,60,VALID,0.332812,
2010-10-19, 02:24:04,VALID,1009.3,VALID,0,VALID,103.649,VALID,0,VALID,22.8173,VALID,78,VALID,0.534766,
2010-10-19, 02:25:04,VALID,1009.3,VALID,0,VALID,103.619,VALID,0,VALID,22.8368,VALID,78,VALID,0.410156,
2010-10-19, 02:26:04,VALID,1009.3,VALID,0,VALID,103.626,VALID,0,VALID,22.8368,VALID,78,VALID,0.619922,
2010-10-19, 02:27:04,VALID,1009.29,VALID,0,VALID,103.626,VALID,0,VALID,22.8368,VALID,78,VALID,0.0367187,
2010-10-19, 02:28:04,VALID,1009.32,VALID,0,VALID,103.611,VALID,0,VALID,22.8562,VALID,78,VALID,0.203906,
2010-10-19, 02:29:04,VALID,1009.33,VALID,0,VALID,103.619,VALID,0,VALID,22.8562,VALID,66,VALID,0.471875,
2010-10-19, 02:30:04,VALID,1009.32,VALID,0,VALID,103.619,VALID,0,VALID,22.858,VALID,55,VALID,0.179297,
2010-10-19, 02:31:04,VALID,1009.31,VALID,0,VALID,103.619,VALID,0,VALID,22.8562,VALID,58,VALID,0.60625,
2010-10-19, 02:32:04,VALID,1009.3,VALID,0,VALID,103.603,VALID,0,VALID,22.8562,VALID,77,VALID,0.601172,
2010-10-19, 02:33:04,VALID,1009.29,VALID,0,VALID,103.626,VALID,0,VALID,22.8562,VALID,76,VALID,0.367188,
2010-10-19, 02:34:04,VALID,1009.31,VALID,0,VALID,103.603,VALID,0,VALID,22.8775,VALID,76,VALID,0.182812,
2010-10-19, 02:35:04,VALID,1009.3,VALID,0,VALID,103.603,VALID,0,VALID,22.8757,VALID,77,VALID,0.277344,
2010-10-19, 02:36:04,VALID,1009.3,VALID,0,VALID,103.611,VALID,0,VALID,22.8757,VALID,77,VALID,0.298047,
2010-10-19, 02:37:04,VALID,1009.28,VALID,0,VALID,103.619,VALID,0,VALID,22.8562,VALID,77,VALID,0.151953,
2010-10-19, 02:38:04,VALID,1009.27,VALID,0,VALID,103.596,VALID,0,VALID,22.8757,VALID,77,VALID,0.123438,
2010-10-19, 02:39:04,VALID,1009.25,VALID,0,VALID,103.581,VALID,0,VALID,22.9164,VALID,77,VALID,0.255859,
2010-10-19, 02:40:04,VALID,1009.25,VALID,0,VALID,103.588,VALID,0,VALID,22.9147,VALID,78,VALID,0.801172,
2010-10-19, 02:41:04,VALID,1009.26,VALID,0,VALID,103.573,VALID,0,VALID,22.9147,VALID,78,VALID,0.367969,
2010-10-19, 02:42:04,VALID,1009.23,VALID,0,VALID,103.581,VALID,0,VALID,22.9749,VALID,78,VALID,0.574609,
2010-10-19, 02:43:04,VALID,1009.23,VALID,0,VALID,103.573,VALID,0,VALID,22.9536,VALID,78,VALID,0.224609,
2010-10-19, 02:44:04,VALID,1009.23,VALID,0,VALID,103.565,VALID,0,VALID,23.0138,VALID,78,VALID,0.65,
2010-10-19, 02:45:04,VALID,1009.24,VALID,0,VALID,103.573,VALID,0,VALID,22.9926,VALID,78,VALID,0.718359,
2010-10-19, 02:46:04,VALID,1009.24,VALID,0,VALID,103.603,VALID,0,VALID,23.0121,VALID,78,VALID,0.496484,
2010-10-19, 02:47:04,VALID,1009.25,VALID,0,VALID,103.603,VALID,0,VALID,23.0528,VALID,78,VALID,0.432422,
2010-10-19, 02:48:04,VALID,1009.23,VALID,0,VALID,103.626,VALID,0,VALID,23.0511,VALID,78,VALID,0.505469,
2010-10-19, 02:49:04,VALID,1009.21,VALID,0,VALID,103.619,VALID,0,VALID,23.0511,VALID,78,VALID,0.253125,
2010-10-19, 02:50:04,VALID,1009.24,VALID,0,VALID,103.642,VALID,0,VALID,23.0723,VALID,78,VALID,0.382422,
2010-10-19, 02:51:04,VALID,1009.22,VALID,0,VALID,103.672,VALID,0,VALID,23.0511,VALID,78,VALID,0.507422,
2010-10-19, 02:52:04,VALID,1009.24,VALID,0,VALID,103.687,VALID,0,VALID,23.0511,VALID,77,VALID,0.705469,
2010-10-19, 02:53:04,VALID,1009.24,VALID,0,VALID,103.687,VALID,0,VALID,23.0705,VALID,70,VALID,0.19375,
2010-10-19, 02:54:04,VALID,1009.27,VALID,0,VALID,103.71,VALID,0,VALID,23.0705,VALID,70,VALID,0,
2010-10-19, 02:55:04,VALID,1009.3,VALID,0,VALID,103.726,VALID,0,VALID,23.0705,VALID,72,VALID,0.270703,
2010-10-19, 02:56:04,VALID,1009.28,VALID,0,VALID,103.733,VALID,0,VALID,23.0705,VALID,78,VALID,0.255469,
2010-10-19, 02:57:04,VALID,1009.29,VALID,0,VALID,103.748,VALID,0,VALID,23.0918,VALID,78,VALID,0.197656,
2010-10-19, 02:58:04,VALID,1009.3,VALID,0,VALID,103.756,VALID,0,VALID,23.09,VALID,78,VALID,0.329297,
2010-10-19, 02:59:04,VALID,1009.32,VALID,0,VALID,103.748,VALID,0,VALID,23.09,VALID,78,VALID,0.0195313,
2010-10-19, 03:00:04,VALID,1009.35,VALID,0,VALID,103.771,VALID,0,VALID,23.0511,VALID,143,VALID,0.711328,
2010-10-19, 03:01:04,VALID,1009.34,VALID,0,VALID,103.794,VALID,0,VALID,23.0511,VALID,148,VALID,0.632031,
2010-10-19, 03:02:04,VALID,1009.37,VALID,0,VALID,103.787,VALID,0,VALID,23.0511,VALID,148,VALID,0.447266,
2010-10-19, 03:03:04,VALID,1009.37,VALID,0,VALID,103.787,VALID,0,VALID,23.0705,VALID,148,VALID,0.344531,
2010-10-19, 03:04:04,VALID,1009.36,VALID,0,VALID,103.771,VALID,0,VALID,23.09,VALID,148,VALID,0,
2010-10-19, 03:05:04,VALID,1009.38,VALID,0,VALID,103.779,VALID,0,VALID,23.0918,VALID,148,VALID,0.622266,
2010-10-19, 03:06:04,VALID,1009.32,VALID,0,VALID,103.779,VALID,0,VALID,23.09,VALID,218,VALID,0.615625,
2010-10-19, 03:07:04,VALID,1009.33,VALID,0,VALID,103.771,VALID,0,VALID,23.1307,VALID,218,VALID,0.345703,
2010-10-19, 03:08:04,VALID,1009.34,VALID,0,VALID,103.771,VALID,0,VALID,23.129,VALID,252,VALID,0.857422,
2010-10-19, 03:09:04,VALID,1009.3,VALID,0,VALID,103.779,VALID,0,VALID,23.129,VALID,257,VALID,0,
2010-10-19, 03:10:04,VALID,1009.27,VALID,0,VALID,103.787,VALID,0,VALID,23.1485,VALID,257,VALID,0.00429688,
2010-10-19, 03:11:04,VALID,1009.24,VALID,0,VALID,103.787,VALID,0,VALID,23.1485,VALID,257,VALID,0,
2010-10-19, 03:12:04,VALID,1009.24,VALID,0,VALID,103.787,VALID,0,VALID,23.1485,VALID,257,VALID,0.168359,
2010-10-19, 03:13:04,VALID,1009.26,VALID,0,VALID,103.794,VALID,0,VALID,23.1697,VALID,257,VALID,0,
2010-10-19, 03:14:04,VALID,1009.26,VALID,0,VALID,103.809,VALID,0,VALID,23.129,VALID,257,VALID,0,
2010-10-19, 03:15:04,VALID,1009.29,VALID,0,VALID,103.794,VALID,0,VALID,23.129,VALID,257,VALID,0,
2010-10-19, 03:16:04,VALID,1009.28,VALID,0,VALID,103.802,VALID,0,VALID,23.129,VALID,257,VALID,0,
2010-10-19, 03:17:04,VALID,1009.3,VALID,0,VALID,103.794,VALID,0,VALID,23.1307,VALID,257,VALID,0,
2010-10-19, 03:18:04,VALID,1009.27,VALID,0,VALID,103.802,VALID,0,VALID,23.1095,VALID,257,VALID,0,
2010-10-19, 03:19:04,VALID,1009.27,VALID,0,VALID,103.802,VALID,0,VALID,23.1095,VALID,257,VALID,0,
2010-10-19, 03:20:04,VALID,1009.26,VALID,0,VALID,103.794,VALID,0,VALID,23.1095,VALID,257,VALID,0,
2010-10-19, 03:21:04,VALID,1009.26,VALID,0,VALID,103.794,VALID,0,VALID,23.1095,VALID,257,VALID,0,
2010-10-19, 03:22:04,VALID,1009.25,VALID,0,VALID,103.802,VALID,0,VALID,23.1095,VALID,257,VALID,0,
2010-10-19, 03:23:04,VALID,1009.24,VALID,0,VALID,103.809,VALID,0,VALID,23.1307,VALID,257,VALID,0.329297,
2010-10-19, 03:24:04,VALID,1009.27,VALID,0,VALID,103.787,VALID,0,VALID,23.1095,VALID,257,VALID,0.0183594,
2010-10-19, 03:25:04,VALID,1009.28,VALID,0,VALID,103.802,VALID,0,VALID,23.1112,VALID,257,VALID,0.00195313,
2010-10-19, 03:26:04,VALID,1009.28,VALID,0,VALID,103.787,VALID,0,VALID,23.1307,VALID,257,VALID,0.308594,
2010-10-19, 03:27:04,VALID,1009.25,VALID,0,VALID,103.787,VALID,0,VALID,23.1307,VALID,257,VALID,0,
2010-10-19, 03:28:04,VALID,1009.21,VALID,0,VALID,103.756,VALID,0,VALID,23.1307,VALID,257,VALID,0,
2010-10-19, 03:29:04,VALID,1009.16,VALID,0,VALID,103.794,VALID,0,VALID,23.1112,VALID,257,VALID,0,
2010-10-19, 03:30:04,VALID,1009.13,VALID,0,VALID,103.794,VALID,0,VALID,23.1307,VALID,257,VALID,0.366406,
2010-10-19, 03:31:04,VALID,1009.12,VALID,0,VALID,103.794,VALID,0,VALID,23.1095,VALID,257,VALID,0.682031,
2010-10-19, 03:32:04,VALID,1009.1,VALID,0,VALID,103.794,VALID,0,VALID,23.0918,VALID,257,VALID,0.879297,
2010-10-19, 03:33:04,VALID,1009.14,VALID,0,VALID,103.787,VALID,0,VALID,23.0705,VALID,257,VALID,0.603906,
2010-10-19, 03:34:04,VALID,1009.15,VALID,0,VALID,103.794,VALID,0,VALID,23.0723,VALID,257,VALID,0.338281,
2010-10-19, 03:35:04,VALID,1009.15,VALID,0,VALID,103.794,VALID,0,VALID,23.0723,VALID,257,VALID,0.158984,
2010-10-19, 03:36:04,VALID,1009.14,VALID,0,VALID,103.794,VALID,0,VALID,23.0511,VALID,257,VALID,0,
2010-10-19, 03:37:04,VALID,1009.14,VALID,0,VALID,103.794,VALID,0,VALID,23.0528,VALID,257,VALID,0,
2010-10-19, 03:38:04,VALID,1009.13,VALID,0,VALID,103.794,VALID,0,VALID,23.0316,VALID,257,VALID,0,
2010-10-19, 03:39:04,VALID,1009.16,VALID,0,VALID,103.794,VALID,0,VALID,23.0528,VALID,257,VALID,0,
2010-10-19, 03:40:04,VALID,1009.15,VALID,0,VALID,103.779,VALID,0,VALID,23.0528,VALID,257,VALID,0,
2010-10-19, 03:41:04,VALID,1009.16,VALID,0,VALID,103.787,VALID,0,VALID,23.0333,VALID,257,VALID,0,
2010-10-19, 03:42:04,VALID,1009.17,VALID,0,VALID,103.787,VALID,0,VALID,23.0316,VALID,257,VALID,0,
2010-10-19, 03:43:04,VALID,1009.16,VALID,0,VALID,103.779,VALID,0,VALID,23.0316,VALID,257,VALID,0,
2010-10-19, 03:44:04,VALID,1009.14,VALID,0,VALID,103.771,VALID,0,VALID,23.0121,VALID,257,VALID,0,
2010-10-19, 03:45:04,VALID,1009.14,VALID,0,VALID,103.764,VALID,0,VALID,23.0121,VALID,257,VALID,0,
2010-10-19, 03:46:04,VALID,1009.11,VALID,0,VALID,103.779,VALID,0,VALID,23.0121,VALID,257,VALID,0,
2010-10-19, 03:47:04,VALID,1009.08,VALID,0,VALID,103.764,VALID,0,VALID,23.0121,VALID,257,VALID,0,
2010-10-19, 03:48:04,VALID,1009.07,VALID,0,VALID,103.748,VALID,0,VALID,22.9926,VALID,257,VALID,0.127344,
2010-10-19, 03:49:04,VALID,1009.06,VALID,0,VALID,103.756,VALID,0,VALID,23.0138,VALID,257,VALID,0.225781,
2010-10-19, 03:50:04,VALID,1009.06,VALID,0,VALID,103.748,VALID,0,VALID,22.9943,VALID,257,VALID,0.398438,